Weather in Cankaya

Turkey     39°53′28″N   32°51′39″E
temp.,
°C
wind,
m/s
gust,
m/s
humid.,
%
clouds,
%
prec.,
mm/h
press.,
hPa
HPBL,
m
4 august, wed
wed400:00+22nne33320 0.0 101525
03:00+20n22360 0.0 101512
06:00+19nne22380 0.0 101512
09:00+26nnw11240 0.0 1015439
12:00+32nw23170 0.0 10132281
15:00+35nw44130 0.0 10113208
18:00+34n65160 0.0 10102278
21:00+26n49320 0.0 1013201
5 august, thu
thu500:00+22nne33420 0.0 101522
03:00+21ne22460 0.0 101418
06:00+20ne22530 0.0 101512
09:00+26nne12350 0.0 1014552
12:00+31nw23170 0.0 10112357
15:00+34wnw23130 0.0 10092866
18:00+34wnw22120 0.0 10073568
21:00+26n33230 0.0 100834
6 august, fri
fri600:00+23ne33300 0.0 100930
03:00+21ne22380 0.0 100814
06:00+20ene22470 0.0 100811
09:00+27e11320 0.0 1007523
12:00+33wsw46180 0.0 10052630
15:00+35wsw6690 0.0 10023363
18:00+35w45102 0.0 10003420
21:00+27nnw3318100 0.0 100115
7 august, sat
sat700:00+25nnw3324100 0.0 100330
03:00+24n3325100 0.0 100324
06:00+24nne3624100 0.0 1003131
09:00+29ene3419100 0.0 1003560
12:00+29ese4322100 0.0 10041571
15:00+32e46175 0.0 10023436
18:00+28n5728100 0.2 10041083
21:00+20nw3467100 4.1 1010169
8 august, sun
sun800:00+20n236319 0.0 1010100
03:00+19nnw11658 0.0 101013
06:00+18nnw22665 0.0 101220
09:00+22n234917 0.0 1012599
12:00+28nw22307 0.0 10112010
15:00+28nnw973323 0.0 10111299
18:00+29n54325 0.0 10111981
21:00+23nne69535 0.3 1014513